Weather in Lovech

Bulgaria     43°08′23″N   24°42′56″E
temp.,
°C
wind,
m/s
gust,
m/s
humid.,
%
clouds,
%
prec.,
mm/h
press.,
hPa
HPBL,
m
18 april, sun
sun1800:00+7wsw2294100 0.0 1015207
03:00+7n1194100 0.0 1015125
06:00+5e119220 0.0 101414
09:00+8ne228061 0.0 1014351
12:00+12n116589 0.0 1014985
15:00+11nw5470100 0.0 1015851
18:00+8wnw458899 0.0 1017312
21:00+8wnw3490100 0.0 1018301
19 april, mon
mon1900:00+7nw1291100 0.0 1018234
03:00+7nnw1295100 0.9 1017174
06:00+6n2398100 3.6 1016211
09:00+6nw1298100 10.3 1015227
12:00+6nnw2393100 12.3 1015654
15:00+6nw3392100 15.9 1014414
18:00+6wnw3496100 0.6 1013354
21:00+5w2496100 0.9 1012258
20 april, tue
tue2000:00+5w3696100 0.4 1012343
03:00+5w4898100 1.1 1011451
06:00+6w41094100 0.2 1011409
09:00+8w6118571 0.3 1012897
12:00+11wnw71068100 0.1 10121443
15:00+12wnw6964100 0.1 10131599
18:00+12wnw4766100 0.0 10131293
21:00+8sw227649 0.0 101422
21 april, wed
wed2100:00+7sw3375100 0.0 101539
03:00+7wsw3376100 0.0 101643
06:00+5wsw488897 0.0 1017194
09:00+9wsw377014 0.0 1018563
12:00+13w56595 0.1 10181508
15:00+14nw575322 0.2 10171831
18:00+14nw45625 0.1 10171280
21:00+10ssw22725 0.1 101912
22 april, thu
thu2200:00+8s33770 0.0 102027
03:00+7ssw22794 0.0 102017
06:00+7ssw22766 0.0 102013
09:00+11sse116613 0.0 1021160
12:00+16e2253100 0.0 1020937
15:00+18ne2248100 0.0 10191591
18:00+13ese237793 0.9 1019127
21:00+10wnw118699 1.4 102010